1316217631827,62.7495
1316217691827,62.8868
1316217751827,62.9411
1316217811827,63.0087
1316217871827,62.8996
1316217931827,62.8603
1316217991827,62.8234
1316218051827,62.7758
1316218111827,62.7935
1316218171827,62.9834
1316218231827,62.7389
1316218291827,62.8310
1316218351827,62.9709
1316218411827,62.8964
1316218471827,62.8265
1316218531827,62.8379
1316218591827,62.9902
1316218651827,62.7646
1316218711827,62.9096
1316218771827,62.9593
1316218831827,62.8308
1316218891827,62.9756
1316218951827,62.9202
1316219011827,62.8463
1316219071827,62.8278
1316219131827,62.9086
1316219191827,63.0421
1316219251827,62.8616
1316219311827,62.8502
1316219371827,62.8874
1316219431827,62.8393
1316219491827,62.8966
1316219551827,62.7128
1316219611827,62.9133
1316219671827,62.7259
1316219731827,62.8091
1316219791827,62.8281
1316219851827,62.8608
1316219911827,62.8536
1316219971827,62.8464
1316220031827,62.7776
1316220091827,62.6689
1316220151827,62.6650
1316220211827,62.7066
1316220271827,62.8195
1316220331827,62.6949
1316220391827,62.7419
1316220451827,62.8076
1316220511827,62.7733
1316220571827,62.8448
1316220631827,62.6871
1316220691827,62.7993
1316220751827,62.7069
1316220811827,62.8045
1316220871827,62.8717
1316220931827,62.9493
1316220991827,62.6350
1316221051827,62.6786
1316221111827,62.8367
1316221171827,62.5753
1316221231838,62.7014
1316221291838,62.7641
1316221351838,62.8550
1316221411838,62.9047
1316221471838,62.7180
1316221531838,62.5564
1316221591838,62.5630
1316221651838,62.4974
1316221711838,62.6914
1316221771838,62.6528
1316221831838,62.7127
1316221891838,62.4637
1316221951838,62.4238
1316222011838,62.3803
1316222071838,62.4511
1316222131838,62.4784
1316222191838,62.4061
1316222251838,62.4195
1316222311838,62.4482
1316222371838,62.3844
1316222431838,62.2497
1316222491838,62.4371
1316222551838,62.4255
1316222611838,62.2365
1316222671838,62.3963
1316222731838,62.3643
1316222791838,62.2934
1316222851838,62.2372
1316222911838,62.1619
1316222971838,62.1382
1316223031838,62.5113
1316223091838,62.3693
1316223151838,62.2464
1316223211838,62.3181
1316223271838,62.1979
1316223331838,62.2892
1316223391838,62.2023
1316223451838,62.1245
1316223511838,62.4357
1316223571838,62.1382
1316223631838,62.2601
1316223691838,62.0929
1316223751838,62.3744
1316223811838,62.2296
1316223871838,62.2256
1316223931838,62.2750
1316223991838,62.3045
1316224051838,62.2005
1316224111838,62.2628
1316224171838,62.2708
1316224231838,62.2650
1316224291838,62.2980
1316224351838,62.2832
1316224411838,62.2215
1316224471838,62.1845
1316224531838,62.2009
1316224591838,62.2974
1316224651838,62.4897
1316224711838,62.3222
1316224771838,62.3095
1316224831850,62.2309
1316224891850,62.1679
1316224951850,62.1515
1316225011850,62.1499
1316225071850,62.2136
1316225131850,62.2270
1316225191850,62.2508
1316225251850,62.1970
1316225311850,62.4090
1316225371850,62.2895
1316225431850,62.2984
1316225491850,62.3994
1316225551850,62.1798
1316225611850,62.3133
1316225671850,62.5883
1316225731850,62.3545
1316225791850,62.3172
1316225851850,62.3256
1316225911850,62.4065
1316225971850,62.2974
1316226031850,62.4786
1316226091850,62.4555
1316226151850,62.4106
1316226211850,62.3839
1316226271850,62.4020
1316226331850,62.2770
1316226391850,62.4749
1316226451850,62.4041
1316226511850,62.4745
1316226571850,62.3498
1316226631850,62.4208
1316226691850,62.3107
1316226751850,62.6325
1316226811850,62.5275
1316226871850,62.3680
1316226931850,62.5712
1316226991850,62.4394
1316227051850,62.5199
1316227111850,62.4622
1316227171850,62.4636
1316227231850,62.3250
1316227291850,62.4950
1316227351850,62.4124
1316227411850,62.5305
1316227471850,62.4598
1316227531850,62.3387
1316227591850,62.4324
1316227651850,62.3113
1316227711850,62.4028
1316227771850,62.3797
1316227831850,62.4656
1316227891850,62.2114
1316227951850,62.1081
1316228011850,62.1747
1316228071850,62.2375
1316228131850,62.1028
1316228191850,62.0961
1316228251850,62.1303
1316228311850,61.9034
1316228371850,62.2181
1316228431861,62.0737
1316228491861,62.1941
1316228551861,62.0254
1316228611861,62.3355
1316228671861,62.2839
1316228731861,62.0983
1316228791861,62.2760
1316228851861,62.3829
1316228911861,62.0323
1316228971861,62.0344
1316229031861,62.1752
1316229091861,62.1328
1316229151861,62.0431
1316229211861,62.1503
1316229271861,62.1580
1316229331861,62.2038
1316229391861,62.2973
1316229451861,62.0493
1316229511861,62.1129
1316229571861,62.1219
1316229631861,62.0847
1316229691861,62.2078
1316229751861,62.0809
1316229811861,62.2305
1316229871861,62.3261
1316229931861,62.2068
1316229991861,62.3434
1316230051861,62.2655
1316230111861,62.2941
1316230171861,62.2010
1316230231861,62.4645
1316230291861,62.0805
1316230351861,62.2719
1316230411861,62.3012
1316230471861,62.3495
1316230531861,62.0863
1316230591861,62.2928
1316230651861,62.3897
1316230711861,62.1149
1316230771861,62.1961
1316230831861,62.1522
1316230891861,62.1694
1316230951861,62.2914
1316231011861,62.2345
1316231071861,62.3147
1316231131861,62.2519
1316231191861,62.3595
1316231251861,62.2994
1316231311861,62.1960
1316231371861,62.2348
1316231431861,62.1432
1316231491861,62.2451
1316231551861,62.1273
1316231611861,62.2562
1316231671861,62.3885
1316231731861,62.3644
1316231791861,62.2716
1316231851861,62.3955
1316231911861,62.2928
1316231971861,62.1994
1316232031872,62.2605
1316232091872,62.3744
1316232151872,62.1683
1316232211872,62.3014
1316232271872,62.2021
1316232331872,62.2489
1316232391872,62.4380
1316232451872,62.4481
1316232511872,62.4000
1316232571872,62.2829
1316232631872,62.3537
1316232691872,62.2012
1316232751872,62.5430
1316232811872,62.2784
1316232871872,62.3244
1316232931872,62.2545
1316232991872,62.3075
1316233051872,62.3994
1316233111872,62.3280
1316233171872,62.3353
1316233231872,62.3508
1316233291872,62.1764
1316233351872,62.3256
1316233411872,62.4791
1316233471872,62.3004
1316233531872,62.3377
1316233591872,62.3331
1316233651872,62.4274
1316233711872,62.5372
1316233771872,62.3001
1316233831872,62.4585
1316233891872,62.2364
1316233951872,62.3569
1316234011872,62.4156
1316234071872,62.4316
1316234131872,62.5531
1316234191872,62.5933
1316234251872,62.4416
1316234311872,62.4543
1316234371872,62.5476
1316234431872,62.6015
1316234491872,62.7143
1316234551872,62.5497
1316234611872,62.6578
1316234671872,62.7516
1316234731872,62.6142
1316234791872,62.7378
1316234851872,62.6692
1316234911872,62.6888
1316234971872,62.8153
1316235031872,62.9180
1316235091872,62.8532
1316235151872,62.8698
1316235211872,62.8010
1316235271872,62.9131
1316235331872,63.0060
1316235391872,62.9106
1316235451872,62.9484
1316235511872,62.9486
1316235571872,63.0253
1316235631882,63.0043
1316235691882,62.8730
1316235751882,63.0130
1316235811882,62.9670
1316235871882,62.9107
1316235931882,63.1317
1316235991882,62.8324
1316236051882,63.1706
1316236111882,62.9793
1316236171882,63.2173
1316236231883,63.0482
1316236291883,62.8533
1316236351883,63.0754
1316236411882,63.1045
1316236471882,63.0544
1316236531882,63.0036
1316236591882,63.2002
1316236651882,63.1850
1316236711882,62.9915
1316236771882,63.0427
1316236831882,63.1067
1316236891882,63.0551
1316236951882,63.1067
1316237011882,63.1252
1316237071882,63.0801
1316237131882,63.1450
1316237191882,63.0993
1316237251882,63.0474
1316237311882,63.0460
1316237371882,63.2928
1316237431882,63.2187
1316237491882,63.0340
1316237551883,63.2358
1316237611883,63.2398
1316237671883,62.9758
1316237731882,63.1421
1316237791882,63.0550
1316237851882,63.1946
1316237911882,63.1676
1316237971882,63.1549
1316238031882,63.1047
1316238091882,63.1736
1316238151882,63.1552
1316238211882,63.3668
1316238271882,63.1827
1316238331882,63.2918
1316238391882,63.1061
1316238451882,63.1805
1316238511882,63.2471
1316238571882,63.2364
1316238631882,63.2795
1316238691882,63.1669
1316238751882,63.4238
1316238811882,63.3212
1316238871882,63.4729
1316238931883,63.4406
1316238991883,63.2859
1316239051883,63.4753
1316239111882,63.3707
1316239171882,63.3248
1316239231893,63.3346
1316239291893,63.3534
1316239351893,63.4811
1316239411893,63.3163
1316239471893,63.3600
1316239531893,63.3581
1316239591893,63.3572
1316239651893,63.3290
1316239711893,63.4471
1316239771893,63.4789
1316239831893,63.3666
1316239891893,63.4652
1316239951893,63.4240
1316240011893,63.3260
1316240071893,63.4428
1316240131893,63.2097
1316240191893,63.2279
1316253031925,62.4987
1316253091925,62.3287
1316253151925,62.5657
1316253211925,62.3504
1316253271925,62.4910
1316253331925,62.5782
1316253391925,62.4799
1316253451925,62.4241
1316253511925,62.5586
1316253571925,62.4301
1316253631936,62.5282
1316253691937,62.6275
1316253751937,62.4470
1316253811936,62.5322
1316253871936,62.5361
1316253931936,62.5850
1316253991936,62.5034
1316254051936,62.6635
1316254111936,62.5742
1316254171936,62.7209
1316254231936,62.5071
1316254291936,62.7168
1316254351936,62.5845
1316254411936,62.6409
1316254471936,62.7695
1316254531936,62.6672
1316254591936,62.7555
1316254651936,62.6801
1316254711936,62.6033
1316254771936,62.7107
1316254831936,62.6174
1316254891936,62.6032
1316254951936,62.6058
1316255011937,62.6427
1316255071937,62.5249
1316255131937,62.6278
1316255191936,62.7758
1316255251936,62.6503
1316255311936,62.6976
1316255371936,62.7559
1316255431936,62.7398
1316255491936,62.6707
1316255551936,62.5482
1316255611936,62.5482
1316255671936,62.5525
1316255731936,62.5942
1316255791936,62.5617
1316255851936,62.6320
1316255911936,62.7520
1316255971936,62.6922
1316256031936,62.6060
1316256091936,62.7322
1316256151936,62.6980
1316256211936,62.5508
1316256271936,62.7173
1316256331936,62.7941
1316256391937,62.6046
1316256451937,62.7324
1316256511936,62.7023
1316256571936,62.7895
1316256631936,62.8506
1316256691936,62.8362
1316256751936,62.6051
1316256811936,62.7083
1316256871936,62.7606
1316256931936,62.5368
1316256991936,62.6877
1316257051936,62.6119
1316257111936,62.4774
1316257171936,62.7210
1316257231948,62.5842
1316257291948,62.5239
1316257351948,62.5735
1316257411948,62.5899
1316257471948,62.5350
1316257531948,62.6127
1316257591948,62.7506
1316257651948,62.4582
1316257711948,62.5326
1316257771948,62.4512
1316257831948,62.5583
1316257891948,62.4358
1316257951948,62.4831
1316258011948,62.4736
1316258071948,62.5974
1316258131948,62.6109
1316258191948,62.6128
1316258251948,62.7878
1316258311948,62.6470
1316258371948,62.5907
1316258431948,62.6119
1316258491948,62.7151
1316258551948,62.7050
1316258611948,62.6931
1316258671948,62.6729
1316258731948,62.7233
1316258791948,62.7105
1316258851948,62.7643
1316258911948,62.9276
1316258971948,62.8178
1316259031948,62.7591
1316259091948,62.7029
1316259151948,62.8474
1316259211948,62.8594
1316259271948,62.7884
1316259331948,62.6261
1316259391948,62.8010
1316259451948,62.8085
1316259511948,63.0754
1316259571948,62.9744
1316259631948,62.7979
1316259691948,62.7870
1316259751948,62.7855
1316259811948,63.0464
1316259871948,62.8940
1316259931948,62.8236
1316259991948,62.8550
1316260051948,62.7715
1316260111948,62.8896
1316260171948,63.0818
1316260231948,62.8451
1316260291948,62.8183
1316260351948,62.9427
1316260411948,63.0043
1316260471948,62.9376
1316260531948,62.9132
1316260591948,62.9552
1316260651948,63.3492
1316260711948,63.0513
1316260771948,63.0158
1316260831960,62.9230
1316260891960,62.9195
1316260951960,63.0025
1316261011960,63.0183
1316261071960,62.9100
1316261131960,62.9374
1316261191960,62.9693
1316261251960,62.9732
1316261311960,63.0853
1316261371960,62.9936
1316261431960,62.9713
1316261491960,63.0166
1316261551960,62.8156
1316261611960,63.1537
1316261671960,63.0064
1316261731960,63.1208
1316261791960,63.2072
1316261851960,63.0575
1316261911960,63.1983
1316261971960,63.1732
1316262031960,62.9631
1316262091960,62.9545
1316262151960,62.7396
1316262211960,62.9362
1316262271960,63.0759
1316262331960,62.9297
1316262391960,63.1003
1316262451960,62.9828
1316262511960,62.9541
1316262571960,62.9936
1316262631960,62.9306
1316262691960,63.0223
1316262751960,62.8983
1316262811960,62.8114
1316262871960,63.0036
1316262931960,62.9802
1316262991960,63.0289
1316263051960,62.9538
1316263111960,63.0977
1316263171960,63.0589
1316263231960,62.8889
1316263291960,62.8468
1316263351960,62.9054
1316263411960,62.9544
1316263471960,63.1188
1316263531960,62.9826
1316263591960,62.9142
1316263651960,63.0520
1316263711960,63.1154
1316263771960,62.9782
1316263831960,63.0450
1316263891960,62.9088
1316263951960,62.6397
1316264011960,62.8781
1316264071960,62.7769
1316264131960,62.7777
1316264191960,62.7417
1316264251960,62.7101
1316264311960,62.9513
1316264371960,62.8328
1316264431973,62.6376
1316264491973,62.7664
1316264551973,62.7566
1316264611973,62.6832
1316264671973,62.7318
1316264731973,62.7604
1316264791973,62.7441
1316264851973,62.5801
1316264911973,62.6217
1316264971973,62.6020
1316265031973,62.6035
1316265091973,62.9524
1316265151973,62.8340
1316265211973,62.6072
1316265271973,62.5006
1316265331973,62.6457
1316265391973,62.6492
1316265451973,62.7046
1316265511973,62.6642
1316265571973,62.6549
1316265631973,62.7783
1316265691973,62.5458
1316265751973,62.6789
1316265811973,62.4899
1316265871973,62.5922
1316265931973,62.6307
1316265991973,62.5871
1316266051973,62.7493
1316266111973,62.6793
1316266171973,62.6669
1316266231973,62.6096
1316266291973,62.5396
1316266351973,62.5722
1316266411973,62.5435
1316266471973,62.4384
1316266531973,62.6027
1316266591973,62.5977
1316266651973,62.5567
1316266711973,62.5767
1316266771973,62.9622
1316266831973,62.3430
1316266891973,62.6095
1316266951973,62.5734
1316267011973,62.5451
1316267071973,62.6410
1316267131973,62.5641
1316267191973,62.6015
1316267251973,62.6331
1316267311973,62.3939
1316267371973,62.5067
1316267431973,62.6404
1316267491973,62.4823
1316267551973,62.5032
1316267611973,62.5994
1316267671973,62.7528
1316267731973,62.6021
1316267791973,62.4555
1316267851973,62.6770
1316267911973,62.6781
1316267971973,62.5225
1316268031986,62.5197
1316268091986,62.3805
1316268151986,62.6074
1316268211986,62.6661
1316268271986,62.6119
1316268331986,62.6351
1316268391986,62.5127
1316268451986,62.5793
1316268511986,62.6824
1316268571986,62.7849
1316268631986,62.5725
1316268691986,62.7131
1316268751986,62.6434
1316268811986,62.8330
1316268871986,62.7231
1316268931986,62.5345
1316268991986,62.7955
1316269051986,62.5718
1316269111986,62.5550
1316269171986,62.5953
1316269231986,62.5368
1316269291986,62.7300
1316269351986,62.6566
1316269411986,62.5766
1316269471986,62.6636
1316269531986,62.6696
1316269591986,62.7825
1316269651986,62.8759
1316269711986,62.5124
1316269771986,62.7295
1316269831986,62.7120
1316269891986,62.6218
1316269951986,62.8093
1316270011986,62.7500
1316270071986,62.8007
1316270131986,62.8170
1316270191986,62.6771
1316270251986,62.6299
1316270311986,62.7274
1316270371986,62.7127
1316270431986,62.6296
1316270491986,62.8305
1316270551986,62.7023
1316270611986,62.6942
1316270671986,62.5507
1316270731986,62.7879
1316270791986,62.7837
1316270851986,62.5995
1316270911986,62.7179
1316270971986,62.8352
1316271031986,62.7020
1316271091986,62.6799
1316271151986,62.6483
1316271211986,62.5723
1316271271986,62.6634
1316271331986,62.6003
1316271391986,62.7085
1316271451986,62.6837
1316271511986,62.7203
1316271571986,62.7300
1316271631999,62.6299
1316271691999,62.6399
1316271751999,62.6602
1316271811999,62.7461
1316271871999,62.5534
1316271931999,62.6638
1316271991999,62.4792
1316272051999,62.7891
1316272111999,62.5243
1316272171999,62.6526
1316272231999,62.6040
1316272291999,62.6298
1316272351999,62.7110
1316272411999,62.5220
1316272471999,62.5666
1316272531999,62.5576
1316272591999,62.4882
1316272651999,62.6134
1316272711999,62.7392
1316272771999,62.6715
1316272831999,62.4797
1316272891999,62.7342
1316272951999,62.6859
1316273011999,62.5745
1316273071999,62.5227
1316273131999,62.6487
1316273191999,62.5261
1316273251999,62.5471
1316273311999,62.4954
1316273371999,62.4262
1316273431999,62.4875
1316273491999,62.4392
1316273551999,62.5067
1316273611999,62.5613
1316273671999,62.5316
1316273731999,62.6298
1316273791999,62.5193
1316273851999,62.5212
1316273911999,62.4812
1316273971999,62.5649
1316274031999,62.6779
1316274091999,62.5157
1316274151999,62.5260
1316274211999,62.4065
1316274271999,62.4548
1316274331999,62.6086
1316274391999,62.5603
1316274451999,62.5153
1316274511999,62.4727
1316274571999,62.5414
1316274631999,62.4500
1316274691999,62.5364
1316274751999,62.5456
1316274811999,62.5931
1316274871999,62.4541
1316274931999,62.4466
1316274991999,62.5802
1316275051999,62.4272
1316275111999,62.4592
1316275171999,62.5514
1316275232012,62.6950
1316275292012,62.5529
1316275352012,62.7353
1316275412012,62.6519
1316275472012,62.6988
1316275532012,62.5886
1316275592012,62.6603
1316275652012,62.2407
1316275712012,62.5384
1316275772012,62.5703
1316275832012,62.5956
1316275892012,62.6222
1316275952012,62.6889
1316276012012,62.5634
1316276072012,62.5266
1316276132012,62.6416
1316276192012,62.6413
1316276252012,62.4838
1316276312012,62.7372
1316276372012,62.7036
1316276432012,62.7178
1316276492012,62.7598
1316276552012,62.6602
1316276612012,62.7695
1316276672012,62.6570
1316276732012,62.5451
1316276792012,62.7682
1316276852012,62.7777
1316276912012,62.6422
1316276972012,62.6289
1316277032012,62.6924
1316277092012,62.4583
1316277152012,62.7067
1316277212012,62.5435
1316277272012,62.5611
1316277332012,62.5754
1316277392012,62.6274
1316277452012,62.8312
1316277512012,62.6552
1316277572012,62.7191
1316277632012,62.6348
1316277692012,62.5574
1316277752012,62.7498
1316277812012,62.6159
1316277872012,62.6432
1316277932012,62.5839
1316277992012,62.4115
1316278052012,62.5734
1316278112012,62.7799
1316278172012,62.4896
1316278232012,62.5645
1316278292012,62.7644
1316278352012,62.6552
1316278412012,62.5329
1316278472012,62.5793
1316278532012,62.4993
1316278592012,62.9069
1316278652012,62.3182
1316278712012,62.4442
1316278772012,62.6516
1316278832025,62.4720
1316278892025,62.4618
1316278952025,62.4924
1316279012025,62.5957
1316279072025,62.4821
1316279132025,62.4870
1316279192025,62.5857
1316279252025,62.7664
1316279312025,62.6445
1316279372025,62.5456
1316279432025,62.5688
1316279492025,62.4667
1316279552025,62.5972
1316279612025,62.6488
1316279672025,62.5398
1316279732025,62.5520
1316279792025,62.7442
1316279852025,62.5180
1316279912025,62.5937
1316279972025,62.6886
1316280032025,62.6623
1316280092025,62.7000
1316280152025,62.5815
1316280212025,62.7866
1316280272025,62.7875
1316280332025,62.7812
1316280392025,62.7597
1316280452025,62.7833
1316280512025,62.8961
1316280572025,62.9032
1316280632025,62.9596
1316280692025,62.8066
1316280752025,62.7694
1316280812025,62.8687
1316280872025,62.9334
1316280932025,62.8821
1316280992025,62.9864
1316281052025,62.8079
1316281112025,62.9740
1316281172025,62.8909
1316281232025,62.8666
1316281292025,62.9303
1316281352025,62.8824
1316281412025,62.9662
1316281472025,63.0655
1316281532025,63.0711
1316281592025,62.9479
1316281652025,62.9568
1316281712025,62.9100
1316281772025,62.9286
1316281832025,62.9164
1316281892025,62.9662
1316281952025,62.9331
1316282012025,62.8026
1316282072025,63.0701
1316282132025,62.9673
1316282192025,63.1236
1316282252025,62.9172
1316282312025,62.8354
1316282372025,62.9754
1316282432039,62.8600
1316282492039,63.0474
1316282552039,62.8654
1316282612039,62.9247
1316282672038,62.8702
1316282732038,62.9407
1316282792038,62.9574
1316282852038,62.9949
1316282912039,62.8998
1316282972039,62.8365
1316283032039,62.8496
1316283092039,62.8423
1316283152039,62.8731
1316283212039,62.9125
1316283272039,62.8513
1316283332039,62.8999
1316283392039,62.7394
1316283452039,62.7247
1316283512039,62.8440
1316283572039,62.7437
1316283632039,62.9321
1316283692039,62.7130
1316283752039,62.5680
1316283812039,62.7675
1316283872039,62.8311
1316283932039,62.7494
1316283992039,62.8961
1316284052038,62.8171
1316284112038,62.8153
1316284172038,62.8142
1316284232039,62.4126
1316284292039,62.7547
1316284352039,62.8083
1316284412039,62.7504
1316284472039,62.5549
1316284532039,62.6667
1316284592039,62.9146
1316284652039,62.6655
1316284712039,62.7993
1316284772039,62.7547
1316284832039,62.8199
1316284892039,62.7003
1316284952039,62.8895
1316285012039,62.7720
1316285072039,62.6843
1316285132039,62.8551
1316285192039,62.9268
1316285252039,62.9037
1316285312039,62.8398
1316285372038,62.9290
1316285432038,62.7227
1316285492038,62.7437
1316285552038,62.7081
1316285612039,62.9123
1316285672039,63.1061
1316285732039,62.8456
1316285792039,62.8617
1316285852039,62.9084
1316285912039,62.8507
1316285972039,63.0093
1316286032052,63.0299
1316286092052,62.8440
1316286152052,62.8317
1316286212052,62.9520
1316286272052,62.9589
1316286332052,62.9310
1316286392052,62.7431
1316286452052,62.9212
1316286512052,62.8091
1316286572052,62.7851
1316286632052,62.7826
1316286692052,62.8322
1316286752052,62.7061
1316286812052,62.7098
1316286872052,62.6594
1316286932052,62.9244
1316286992052,62.8264
1316287052052,62.9597
1316287112052,62.9282
1316287172052,63.0210
1316287232052,62.8767
1316287292052,62.8478
1316287352052,62.8250
1316287412052,62.9306
1316287472052,62.8913
1316287532052,62.7508
1316287592052,63.0057
1316287652052,62.6968
1316287712052,62.8924
1316287772052,62.8954
1316287832052,62.7695
1316287892052,62.7506
1316287952052,63.0151
1316288012052,62.8943
1316288072052,62.9583
1316288132052,62.9253
1316288192052,63.0834
1316288252052,62.8344
1316288312052,62.7942
1316288372052,63.0218
1316288432052,62.8494
1316288492052,62.6896
1316288552052,62.8804
1316288612052,62.8956
1316288672052,62.9940
1316288732052,62.8161
1316288792052,62.8567
1316288852052,62.8902
1316288912052,62.7803
1316288972052,63.0240
1316289032052,62.6834
1316289092052,62.8350
1316289152052,62.9518
1316289212052,62.9204
1316289272052,62.9605
1316289332052,63.0512
1316289392052,62.8733
1316289452052,62.9761
1316289512052,62.8363
1316289572052,62.9409
1316289632065,62.9253
1316289692065,62.8680
1316289752065,62.9121
1316289812065,63.0939
1316289872065,62.9427
1316289932065,63.0257
1316289992065,63.0075
1316290052065,62.9319
1316290112065,63.0984
1316290172065,62.8873
1316290232065,63.0441
1316290292065,62.9227
1316290352065,62.9295
1316290412065,62.9634
1316290472065,62.8369
1316290532065,62.9914
1316290592065,63.0520
1316290652065,63.0056
1316290712065,63.0587
1316290772065,62.9258
1316290832065,63.0370
1316290892065,62.8224
1316290952065,63.0741
1316291012065,62.9756
1316291072065,63.4289
1316291132065,63.3874
1316291192065,63.0581
1316291252065,63.1492
1316291312065,63.1279
1316291372065,63.1838
1316291432065,63.2163
1316291492065,63.0727
1316291552065,63.3152
1316291612065,63.1877
1316291672065,63.0926
1316291732065,63.1925
1316291792065,63.2893
1316291852065,63.3129
1316291912065,63.2575
1316291972065,63.1481
1316292032065,63.1437
1316292092065,63.1086
1316292152065,63.2242
1316292212065,63.2706
1316292272065,63.1316
1316292332065,63.0666
1316292392065,63.1824
1316292452065,63.0589
1316292512065,63.2944
1316292572065,63.2003
1316292632065,63.2429
1316292692065,63.2623
1316292752065,63.2328
1316292812065,63.1764
1316292872065,62.9812
1316292932065,63.2012
1316292992065,63.2166
1316293052065,63.1269
1316293112065,63.1924
1316293172065,63.1120
1316293232078,63.2560
1316293292078,63.1308
1316293352078,63.2201
1316293412078,63.0906
1316293472078,63.1724
1316293532078,63.2463
1316293592078,63.1327
1316293652078,63.1155
1316293712078,63.0898
1316293772078,62.9574
1316293832078,63.1420
1316293892078,63.1812
1316293952078,63.1571
1316294012078,63.2010
1316294072078,63.1925
1316294132078,63.2282
1316294192078,63.0171
1316294252078,63.1451
1316294312078,63.2432
1316294372078,63.0966
1316294432078,63.2716
1316294492078,63.1429
1316294552078,63.3361
1316294612078,63.2955
1316294672078,63.0222
1316294732078,63.2300
1316294792078,63.1472
1316294852078,63.1559
1316294912078,63.1800
1316294972078,62.9289
1316295032078,63.1379
1316295092078,63.3376
1316295152078,63.2471
1316295212078,63.1138
1316295272078,63.1563
1316295332078,63.0919
1316295392078,63.2413
1316295452078,63.0613
1316295512078,63.1809
1316295572078,63.1813
1316295632078,63.1135
1316295692078,63.2527
1316295752078,63.1785